loading
DOY 175 | 2024-06-23T10:34:20Z

OBJECT D, 60015

Orbit data source: Space-Track

OBJECT D, 60015 is a satellite owned by Xinghe Dongli (CN) in SSO that was launched on Thu, 06 Jun 2024 UTC via a Gushenxing 1 launch vehicle from the Jiuquan Satellite Launch Center, China (JSC). Unknown objects in Earth's orbit typically refer to objects detected orbiting the Earth but have not yet been identified or cataloged. These objects could be anything from previously untracked satellites, spent rocket stages, debris from satellite collisions, or even natural meteoroids temporarily captured by Earth's gravity.

Loading next visibility...
Loading greatness...
OBJECT D details
NORAD ID60015
COSPAR ID
2024-110D
Orbit
SSO
Last TLE update6 hours ago
Origin
Flag of CNXinghe Dongli (CN / PRC)
ManufacturerXinghe Dongli
BusLSP
MotorEdge
Mass20 kg wet, 20 kg dry
Launch date (UTC)
2024-06-06 (2 weeks ago)
Launch vehicle
Gushenxing 1
Launch site
Jiuquan Satellite Launch Center, China (JSC)
Object typeUnknown
Radar Cross SectionMedium (>0.1 m² and <1 m²)
Predictive object data (real-time)
Latitude-72.20432°
Longitude-53.32304°
Altitude567.259 km
Speed7.579 km/s
Apparent Right ascension11h 12m 10s
Apparent Declination-71° 44' 53"
Sunlit
Object is in full shadow
Predictive observer data (real-time)
Local Sidereal Time21:42:13
Azimuth192.447° SSW
Elevation-56.236°
Doppler factor1
Orbital elements
Apogee552.521 km
Perigee534.053 km
Semi-major axis6,921.424 km
Eccentricity0.0013341
Inclination97.602°
RAAN261.6973°
Arg. of periapsis235.2768°
True anomaly124.84594°
Mean anomaly124.7204°
Mean motion3.76921 °/min
BSTAR0.00041681
Period95.51 mins
Definitive object data (Epoch: 2024-06-23T04:31:25.122Z)
Latitude0.00005°
Longitude-77.99843°
Altitude554.633 km
Speed7.581 km/s
True Right ascension17h 26m 47s
True Declination0° 00' 00"
Sunlit
Object was in full shadow at TLE epoch
TLE from 6 hours ago
0 OBJECT D
1 60015U 24110D   24175.18848521  .00006141  00000-0  41681-3 0  9991
2 60015  97.6020 261.6973 0013341 235.2768 124.7204 15.06699108  2543
Epoch: 2024-06-23T04:31Z
No data available
Other satellites on launch #110 in the year 2024 (2024-06-06 UTC)

OBJECT D Visibility forecast

Observer location: 39.9160978°, -105.1181434, 0m alt.

OBJECT D is not visible in the next 10 days
Span
Click to sort rows by Start time (UTC) header in descending order
Start Az.
Max El. time (UTC)
Max El. Az.
Max El.
End time (UTC)
End Az.